Flag for Netherlands Weather past 2 weeks in Enschede, Netherlands

Now
43 °F

Light rain. Overcast.


Feels Like: 35 °F
Forecast: 32 / 47 °F
Wind: 16 mph from North

Location: Deelen

Current Time: Feb 27, 2015 at 1:42:56 AM

Latest Report: Feb 27, 2015 at 12:55 AM


Visibility: N/A

Pressure: 29.77 "Hg

Humidity: 87%

Dew point: 39 °F

Location of EnschedeLocation

Historic Weather in Enschede — Graph

°F

Enschede temperature yesterday

Maximum temperature yesterday: 48 °F (at 2:25 PM)
Minimum temperature yesterday: 37 °F (at 6:25 AM)
Average temperature yesterday: 43 °F

Past Weeks' High & Low Weather Summary

 TemperatureHumidityPressure
High50 °F (Feb 14, 12:55 PM)100% (Feb 12, 12:25 AM)30.72 "Hg (Feb 12, 12:25 AM)
Low25 °F (Feb 16, 4:25 AM)62% (Feb 13, 2:55 PM)29.30 "Hg (Feb 23, 4:25 AM)
Average38 °F89%29.93 "Hg
* Reported Feb 12 12:25 AM — Feb 27 12:25 AM, Enschede, Weather by CustomWeather, © 2015

Note: Actual official high and low records may vary slightly from our data, if they occured in-between our weather recording intervals... More about our weather records

Advertising

Enschede weather history for previous 24 hours

 ConditionsComfort  
Time TempWeatherWind HumidityBarometerVisibility
12:25 AM
Fri, Feb 27
45 °FPassing clouds.18 mph93%29.77 "Hg4 mi
11:55 PM
Thu, Feb 26
45 °FLight rain. Mostly cloudy.5 mph100%29.77 "Hg1 mi
11:25 PM45 °FDrizzle. Mostly cloudy.7 mph100%29.77 "Hg2 mi
10:55 PM45 °FDrizzle. Overcast.10 mph100%29.77 "Hg2 mi
9:55 PM45 °FLight rain. Mostly cloudy.12 mph100%29.77 "Hg3 mi
9:25 PM45 °FPartly cloudy.12 mph100%29.77 "Hg3 mi
8:55 PM45 °FDrizzle. Overcast.12 mph100%29.77 "Hg3 mi
8:25 PM45 °FDrizzle. Mostly cloudy.13 mph100%29.80 "Hg2 mi
7:55 PM45 °FDrizzle. Overcast.14 mph100%29.80 "Hg2 mi
7:25 PM45 °FDrizzle. Mostly cloudy.16 mph100%29.80 "Hg1 mi
6:55 PM45 °FDrizzle. Overcast.15 mph100%29.83 "Hg2 mi
6:25 PM45 °FDrizzle. Mostly cloudy.15 mph100%29.83 "Hg2 mi
5:55 PM45 °FDrizzle. Broken clouds.14 mph100%29.83 "Hg3 mi
5:25 PM46 °FFog.13 mph93%29.83 "Hg5 mi
4:55 PM46 °FDrizzle. Broken clouds.13 mph93%29.83 "Hg2 mi
4:25 PM46 °FDrizzle. Broken clouds.14 mph93%29.86 "Hg3 mi
3:55 PM46 °FLight rain. Cloudy.14 mph93%29.86 "Hg3 mi
3:25 PM46 °FDrizzle. More clouds than sun.13 mph87%29.89 "HgN/A
2:55 PM48 °FLight rain. Mostly cloudy.15 mph82%29.89 "HgN/A
2:25 PM48 °FCloudy.15 mph82%29.92 "HgN/A
1:55 PM46 °FMore clouds than sun.12 mph87%29.92 "HgN/A
1:25 PM45 °FFog.14 mph87%29.95 "Hg5 mi
12:55 PM45 °FFog.13 mph87%29.95 "Hg4 mi
12:25 PM43 °FFog.14 mph93%29.98 "Hg4 mi
11:55 AM43 °FFog.12 mph93%29.98 "Hg3 mi
11:25 AM43 °FFog.14 mph93%29.98 "Hg3 mi
10:55 AM41 °FFog.13 mph93%30.01 "Hg3 mi
10:25 AM41 °FFog.12 mph93%30.01 "Hg2 mi
9:55 AM41 °FFog.12 mph93%30.04 "Hg2 mi
9:25 AM41 °FFog.10 mph93%30.01 "Hg2 mi
8:55 AM39 °FFog.13 mph100%30.04 "Hg2 mi
8:25 AM39 °FFog.10 mph100%30.04 "Hg2 mi
7:55 AM37 °FFog.10 mph100%30.04 "Hg1 mi
6:55 AM37 °FFog.10 mph100%30.07 "Hg1 mi
6:25 AM37 °FFog.8 mph100%30.07 "Hg1 mi
5:55 AM39 °FFog.9 mph93%30.07 "Hg1 mi
5:25 AM39 °FFog.7 mph93%30.07 "Hg1 mi
4:55 AM39 °FFog.8 mph100%30.07 "Hg1 mi
4:25 AM39 °FFog.7 mph100%30.07 "Hg1 mi
3:55 AM39 °FFog.7 mph100%30.07 "Hg1 mi
3:25 AM39 °FFog.7 mph100%30.07 "Hg1 mi
2:55 AM39 °FFog.8 mph100%30.07 "Hg1 mi
2:25 AM39 °FFog.8 mph100%30.07 "Hg1 mi
1:55 AM41 °FFog.7 mph93%30.07 "Hg1 mi
1:25 AM41 °FFog.6 mph93%30.09 "Hg2 mi
Weather by CustomWeather, © 2015

See weather overviewHow to use our weather pages